Regional Weather Roundup
Issued by NWS

Home | Current Version | Previous Version | Graphics & Text | Print | Product List | Glossary On
Versions: 1 2 3 4 5 6 7 8 9 10 11 12 13 14 15 16 17 18 19 20 21 22 23 24 25 26 27 28 29 30 31 32 33 34 35 36 37 38 39 40 41 42 43 44 45 46 47 48 49 50
964
ASUS43 KLMK 271910
RWRKY
KENTUCKY REGIONAL WEATHER ROUNDUP
NATIONAL WEATHER SERVICE LOUISVILLE KY
300 PM EDT TUE JUN 27 2017

NOTE "FAIR" INDICATES FEW OR NO CLOUDS BELOW 12,000 FEET
WITH NO SIGNIFICANT WEATHER AND/OR OBSTRUCTIONS TO VISIBILITY.

KYZ001>023-026-027-061>063-070>075-272000-
WESTERN AND SOUTH CENTRAL KENTUCKY

CITY           SKY/WX    TMP DP  RH WIND       PRES   REMARKS
PADUCAH        SUNNY     79  54  41 E5        30.11F
HENDERSON      MOSUNNY   77  53  43 MISG      30.13F
OWENSBORO      MOSUNNY   78  54  43 E6        30.13F
HOPKINSVILLE   SUNNY     77  53  43 E5        30.10F
BOWLING GREEN  MOSUNNY   80  55  42 VRB6      30.12F
GLASGOW        MOSUNNY   76  53  44 CALM      30.13F
$$

KYZ024-025-028>034-038-045-046-053-272000-
NORTH CENTRAL KENTUCKY

CITY           SKY/WX    TMP DP  RH WIND       PRES   REMARKS
LOUISVILLE/SDF MOSUNNY   78  51  38 VRB7      30.12F
LOUISVILLE/LOU MOSUNNY   78  50  37 NW5       30.13F
FORT KNOX      PTSUNNY   74  51  44 NW5       30.11F
$$

KYZ035>037-039>044-047>052-055>060-089>105-272000-
NORTHEAST KENTUCKY

CITY           SKY/WX    TMP DP  RH WIND       PRES   REMARKS
LEXINGTON      MOSUNNY   75  47  36 NW9       30.14F
COVINGTON      PTSUNNY   71  50  47 N3        30.14F
FRANKFORT      MOSUNNY   73  46  38 VRB5      30.13F
$$

KYZ054-064>069-076>088-106>120-272000-
SOUTHEAST KENTUCKY

CITY           SKY/WX    TMP DP  RH WIND       PRES   REMARKS
JACKSON        MOSUNNY   74  50  42 VRB5      30.14S
LONDON         MOSUNNY   76  47  35 NW7       30.14S
SOMERSET       PTSUNNY   73  50  43 CALM      30.15S
MIDDLESBORO    PTSUNNY   74  51  44 NE7       30.14S
MONTICELLO     CLEAR     75  53  46 NW10G18   30.15F
$$





USA.gov is the U.S. government's official web portal to all federal, state and local government web resources and services.